Location: Cedar Brake
(32.2526°N, 97.8459°W)
Time: 20:11:49
(UTC+00:00)

Cosmos 1758 - Pass Details

Date: 22 April 2026
Orbit: 475 x 497 km, 82.5° (Epoch: 21 May)

Event Time Altitude Azimuth Distance (km) Brightness Sun altitude
Rises 10:20:55 0° 2° (N) 2,542 7.1 -19.1°
Reaches altitude 10° 10:23:07 10° 10° (N) 1,655 6.3 -18.7°
Maximum altitude 10:26:33 41° 81° (E) 707 4.4 -18.1°
Drops below altitude 10° 10:29:56 10° 153° (SSE) 1,637 5.7 -17.4°
Sets 10:32:05 0° 160° (SSE) 2,509 6.6 -17.0°
